Weather in Bangor

United States     44°48′03″N   68°46′40″W
temp.,
°C
wind,
m/s
gust,
m/s
humid.,
%
clouds,
%
prec.,
mm/h
press.,
hPa
HPBL,
m
18 september, sat
sat1823:00+14s259941 0.0 1022107
02:00+16s2799100 0.0 1020297
05:00+16s1298100 0.0 101973
08:00+17s1294100 0.1 101884
11:00+22ssw237653 0.0 1017659
14:00+27w125614 0.0 10141293
17:00+22ssw128479 0.9 101336
20:00+17nnw2898100 6.6 1015228
19 september, sun
sun1923:00+15n31294100 2.7 1016491
02:00+13n3139119 2.7 1016446
05:00+10n313900 0.0 1018395
08:00+12n413735 0.0 1020544
11:00+17n58480 0.0 10201061
14:00+20n46410 0.0 10191503
17:00+19n25520 0.0 1020636
20:00+12nne11750 0.0 102311
20 september, mon
mon2023:00+10nnw22820 0.0 102515
02:00+8nnw118752 0.0 102613
05:00+7n22835 0.0 102822
08:00+10nne23685 0.0 1029160
11:00+18ne12440 0.0 1030718
14:00+21se11380 0.0 10291217
17:00+18s35570 0.0 1029336
20:00+11s23850 0.0 103164
21 september, tue
tue2123:00+9s22930 0.0 103224
02:00+9s11970 0.0 103215
05:00+9s11982 0.0 103216
08:00+13s25913 0.0 1032214
11:00+19s46560 0.0 10321041
14:00+20s57480 0.0 10311028
17:00+17s48660 0.0 1029674
20:00+12sse29988 0.0 1029257
22 september, wed
wed2223:00+12sse289983 0.0 1028188
02:00+12sse289951 0.0 1027210
05:00+12sse269926 0.0 1026145
08:00+15se2894100 0.0 1024249
11:00+19s4871100 0.0 1023705
14:00+22s595775 0.0 10211272
17:00+19sse41073100 0.0 1020936
20:00+18sse41278100 0.0 1020752